Regional Weather Roundup
Issued by NWS Kansas City/Pleasant Hill, MO

Home | Current Version | Previous Version | Graphics & Text | Print | Product List | Glossary Off
Versions: 1 2 3 4 5 6 7 8 9 10 11 12 13 14 15 16 17 18 19 20 21 22 23 24 25 26 27 28 29 30 31 32 33 34 35 36 37 38 39 40 41 42 43 44 45 46 47 48 49 50

000
ASUS43 KEAX 281704
RWREAX

WEATHER ROUNDUP FOR EASTERN KANSAS AND NORTHWEST MISSOURI
NATIONAL WEATHER SERVICE KANSAS CITY/PLEASANT HILL MO
1200 PM CDT SAT MAR 28 2015

KSZ040-057-103>105-MOZ028-029-037-043-281800-
...KANSAS CITY METROPOLITAN AREA...

CITY           SKY/WX    TMP DP  RH WIND       PRES   REMARKS
K.C. INTL      CLOUDY    44  30  57 SE16G22   30.18S
K.C. DOWNTOWN  CLOUDY    46  30  53 SE10      30.18F
LEES SUMMIT    CLOUDY    43  29  57 SE13G20   30.19S
OLATHE - IXD   SUNNY     46  28  49 SE15G24   30.16F
OLATHE - OJC   CLOUDY    46  30  53 E15       30.16S
LAWRENCE       SUNNY     49  29  46 SE16G22   30.16S

$$

MOZ001>008-011>017-020>025-030>033-038>040-044>046-053-054-281800-
...NORTHERN AND CENTRAL MISSOURI...

CITY           SKY/WX    TMP DP  RH WIND       PRES   REMARKS
ST. JOSEPH     PTSUNNY   46  30  53 SE14      30.19F
MOSBY          CLOUDY    43  32  65 SE12      30.21F
WARRENSBURG    PTSUNNY   45  32  61 SE10      30.21F
WHITEMAN AFB   MOSUNNY   42  32  67 SE12      30.21F
CLINTON        PTSUNNY   43  32  65 E13       30.22F
SEDALIA        CLOUDY    43  32  65 SE10      30.24S
WARSAW         NOT AVBL
MARSHALL       CLOUDY    45  34  65 SE9G17    30.25F
CHILLICOTHE      N/A     41  29  62 SE13      30.25F WCI  34
MOBERLY        CLOUDY    39  21  48 SE12      30.28S WCI  32
KIRKSVILLE     MOSUNNY   41  19  41 SE12G18   30.27F WCI  34

$$

MOZ041-047>049-056>058-063>065-088>090-097-281800-
...EASTERN AND SOUTHERN MISSOURI...

CITY           SKY/WX    TMP DP  RH WIND       PRES   REMARKS
ST. LOUIS INTL NOT AVBL
SPIRIT OF STL  MOSUNNY   41  17  38 SE8       30.32S
COLUMBIA       CLOUDY    39  26  59 SE8       30.27S WCI  33
JEFFERSON CITY CLOUDY    40  27  59 SE9       30.29S WCI  34
MEXICO         CLOUDY    41  25  52 SE9       30.29S
HANNIBAL       SUNNY     43  12  28 E12       30.30F
ROLLA          CLOUDY    37  29  72 SE7       30.25S WCI  32
OSAGE BEACH    CLOUDY    37  28  70 SE12      30.25F WCI  30
SPRINGFIELD    CLOUDY    41  27  57 SE15      30.19R WCI  33
BRANSON        CLOUDY    41  32  70 E14G21    30.21S WCI  33
NEVADA         SUNNY     48  30  49 SE14G23   30.17S
JOPLIN         SUNNY     53  33  46 E14       30.12F
WEST PLAINS    LGT SNOW  33  29  85 SE7       30.28S FOG     WCI  27

$$

IAZ060-094-KSZ022-034>040-054-083-096-NEZ052-066-093-281800-
...KANSAS...SOUTHEAST NEBRASKA AND IOWA...

CITY           SKY/WX    TMP DP  RH WIND       PRES   REMARKS
TOPEKA         SUNNY     50  28  42 E13G22    30.14F
MANHATTAN      SUNNY     53  32  44 SE10      30.10S
EMPORIA        SUNNY     53  32  44 E13G18    30.08S
CHANUTE        SUNNY     54  36  50 SE12G18   30.10S
WICHITA        MOSUNNY   59  39  47 VRB5      30.04R
OMAHA          SUNNY     45  27  49 SE17      30.17S
LINCOLN        SUNNY     46  29  51 SE9G20    30.15S
FALLS CITY     SUNNY     48  29  47 SE16G24   30.16S
LAMONI         CLOUDY    39  24  55 SE12      30.22S WCI  32
DES MOINES     MOSUNNY   44  12  27 S16G24    30.24S

$$




USA.gov is the U.S. government's official web portal to all federal, state and local government web resources and services.